Radiation Dose at Monitoring Post of Fukushima Daini Nuclear Power Station
Date,Time,MP-1(microSv/h),MP-2(microSv/h),MP-3(microSv/h),MP-4(microSv/h),MP-5(microSv/h),MP-6(microSv/h),MP-7(microSv/h),Wind Direction,Wind Velocity(m/s),Rain
2017/06/03,00:00,0.363,0.220,0.374,0.345,0.321,0.182,0.116,west-northwest,3.6,No
2017/06/03,00:10,0.364,0.219,0.372,0.343,0.318,0.182,0.117,northwest,3.3,No
2017/06/03,00:20,0.363,0.219,0.372,0.347,0.322,0.182,0.117,west,2.9,No
2017/06/03,00:30,0.364,0.219,0.373,0.343,0.319,0.182,0.117,west-northwest,1.6,No
2017/06/03,00:40,0.363,0.219,0.373,0.344,0.321,0.182,0.117,northeast,0.8,No
2017/06/03,00:50,0.364,0.220,0.375,0.344,0.319,0.182,0.117,northeast,2.2,No
2017/06/03,01:00,0.362,0.219,0.372,0.346,0.321,0.181,0.117,north-northeast,1.9,No
2017/06/03,01:10,0.364,0.220,0.375,0.343,0.319,0.182,0.117,north-northeast,2.4,No
2017/06/03,01:20,0.363,0.219,0.372,0.344,0.320,0.181,0.117,north,0.9,No
2017/06/03,01:30,0.364,0.220,0.376,0.345,0.321,0.182,0.117,southeast,1.7,No
2017/06/03,01:40,0.366,0.219,0.373,0.342,0.318,0.182,0.117,northeast,1.3,No
2017/06/03,01:50,0.363,0.219,0.373,0.345,0.321,0.181,0.117,north,3.4,No
2017/06/03,02:00,0.364,0.219,0.372,0.343,0.317,0.182,0.117,north,2.2,No
2017/06/03,02:10,0.364,0.221,0.373,0.346,0.321,0.182,0.117,north,3.6,No
2017/06/03,02:20,0.366,0.220,0.374,0.343,0.317,0.181,0.118,north,3.9,No
2017/06/03,02:30,0.362,0.219,0.372,0.345,0.320,0.182,0.117,north,4.2,No
2017/06/03,02:40,0.365,0.221,0.374,0.345,0.320,0.182,0.117,north,3.1,No
2017/06/03,02:50,0.363,0.219,0.373,0.344,0.319,0.183,0.116,north,2.7,No
2017/06/03,03:00,0.366,0.219,0.372,0.345,0.319,0.181,0.117,north-northwest,4.1,No
2017/06/03,03:10,0.364,0.219,0.373,0.343,0.318,0.181,0.118,northwest,3.7,No
2017/06/03,03:20,0.364,0.219,0.372,0.345,0.321,0.181,0.117,west-northwest,2.8,No
2017/06/03,03:30,0.365,0.220,0.373,0.344,0.319,0.182,0.117,west,1.0,No
2017/06/03,03:40,0.364,0.220,0.371,0.344,0.321,0.181,0.118,-,CALM,No
2017/06/03,03:50,0.365,0.220,0.374,0.344,0.320,0.182,0.117,north,0.8,No
2017/06/03,04:00,0.363,0.220,0.373,0.345,0.320,0.181,0.117,west-northwest,2.5,No
2017/06/03,04:10,0.367,0.220,0.372,0.345,0.321,0.181,0.117,northwest,1.2,No
2017/06/03,04:20,0.364,0.220,0.372,0.346,0.319,0.181,0.118,north,1.2,No
2017/06/03,04:30,0.365,0.221,0.372,0.346,0.322,0.181,0.117,west-southwest,1.2,No
2017/06/03,04:40,0.364,0.219,0.374,0.344,0.319,0.182,0.118,northwest,0.5,No
2017/06/03,04:50,0.364,0.220,0.372,0.346,0.322,0.181,0.117,northwest,2.2,No
2017/06/03,05:00,0.365,0.220,0.375,0.344,0.318,0.182,0.117,northeast,1.7,No
2017/06/03,05:10,0.364,0.220,0.372,0.345,0.320,0.181,0.117,north,1.0,No
2017/06/03,05:20,0.365,0.220,0.373,0.345,0.318,0.182,0.117,-,CALM,No
2017/06/03,05:30,0.362,0.218,0.374,0.345,0.319,0.182,0.116,east-northeast,1.3,No
2017/06/03,05:40,0.365,0.220,0.372,0.345,0.318,0.183,0.117,northeast,1.8,No
2017/06/03,05:50,0.362,0.218,0.373,0.344,0.319,0.182,0.118,north-northeast,0.8,No
2017/06/03,06:00,0.364,0.220,0.371,0.345,0.317,0.181,0.118,west-southwest,0.5,No
2017/06/03,06:10,0.364,0.217,0.375,0.343,0.319,0.182,0.116,-,CALM,No
2017/06/03,06:20,0.366,0.220,0.374,0.346,0.318,0.182,0.117,northwest,0.8,No
2017/06/03,06:30,0.362,0.219,0.374,0.344,0.319,0.182,0.117,west,1.9,No
2017/06/03,06:40,0.364,0.218,0.371,0.345,0.319,0.182,0.116,-,CALM,No
2017/06/03,06:50,0.362,0.220,0.373,0.343,0.318,0.181,0.117,west-northwest,2.3,No
2017/06/03,07:00,0.365,0.218,0.371,0.346,0.320,0.181,0.117,northwest,1.6,No
2017/06/03,07:10,0.362,0.218,0.374,0.344,0.317,0.183,0.117,west-northwest,5.3,No
2017/06/03,07:20,0.365,0.220,0.371,0.341,0.320,0.181,0.116,west-northwest,4.3,No
2017/06/03,07:30,0.364,0.219,0.367,0.346,0.317,0.182,0.117,northwest,4.3,No
2017/06/03,07:40,0.360,0.218,0.373,0.342,0.320,0.181,0.118,northwest,3.1,No
2017/06/03,07:50,0.364,0.219,0.373,0.341,0.320,0.182,0.117,north,1.8,No
2017/06/03,08:00,0.361,0.219,0.370,0.344,0.316,0.183,0.117,northeast,1.8,No
2017/06/03,08:10,0.363,0.220,0.368,0.344,0.319,0.180,0.116,east-southeast,2.0,No
2017/06/03,08:20,0.365,0.218,0.371,0.342,0.318,0.182,0.118,southeast,1.9,No
2017/06/03,08:30,0.361,0.221,0.374,0.340,0.316,0.183,0.116,east-southeast,2.9,No
2017/06/03,08:40,0.364,0.220,0.372,0.344,0.321,0.180,0.116,southeast,3.2,No
2017/06/03,08:50,0.363,0.217,0.372,0.344,0.318,0.183,0.117,southeast,1.8,No
2017/06/03,09:00,0.361,0.219,0.375,0.344,0.317,0.182,0.118,southeast,4.7,No
2017/06/03,09:10,0.365,0.219,0.372,0.343,0.321,0.182,0.117,east-southeast,4.4,No
2017/06/03,09:20,0.364,0.219,0.373,0.342,0.319,0.183,0.117,southeast,3.3,No
2017/06/03,09:30,0.363,0.218,0.376,0.348,0.318,0.183,0.117,east-southeast,3.4,No
2017/06/03,09:40,0.361,0.220,0.372,0.346,0.321,0.183,0.118,south-southwest,2.8,No
2017/06/03,09:50,0.361,0.222,0.377,0.344,0.320,0.182,0.118,west,7.0,No
2017/06/03,10:00,0.366,0.219,0.375,0.342,0.318,0.183,0.117,west-northwest,6.4,No
2017/06/03,10:10,0.366,0.219,0.372,0.342,0.320,0.183,0.117,west,7.4,No
2017/06/03,10:20,0.365,0.219,0.371,0.342,0.321,0.182,0.117,west-northwest,9.8,No
2017/06/03,10:30,0.362,0.221,0.375,0.343,0.320,0.183,0.117,west-northwest,8.2,No
2017/06/03,10:40,0.362,0.221,0.373,0.342,0.319,0.182,0.118,west-northwest,5.6,No
2017/06/03,10:50,0.367,0.220,0.372,0.343,0.317,0.183,0.117,west-northwest,5.5,No
2017/06/03,11:00,0.365,0.219,0.370,0.343,0.322,0.181,0.116,west-northwest,8.4,No
2017/06/03,11:10,0.363,0.220,0.370,0.344,0.322,0.183,0.117,west-northwest,6.2,No
2017/06/03,11:20,0.363,0.223,0.373,0.344,0.320,0.182,0.117,northwest,9.2,No
2017/06/03,11:30,0.369,0.221,0.376,0.344,0.318,0.183,0.118,northwest,10.0,No
2017/06/03,11:40,0.365,0.220,0.376,0.346,0.318,0.184,0.119,northwest,6.6,No
2017/06/03,11:50,0.363,0.221,0.373,0.349,0.322,0.183,0.119,west-northwest,8.7,No
2017/06/03,12:00,0.366,0.222,0.372,0.350,0.323,0.183,0.118,west,10.7,No
2017/06/03,12:10,0.368,0.221,0.372,0.350,0.322,0.183,0.117,west-northwest,11.2,No
2017/06/03,12:20,0.364,0.220,0.378,0.347,0.318,0.183,0.118,west-northwest,11.4,No
2017/06/03,12:30,0.365,0.221,0.378,0.347,0.318,0.184,0.118,west,13.3,No
2017/06/03,12:40,0.370,0.221,0.375,0.345,0.319,0.184,0.119,west-northwest,9.7,No
2017/06/03,12:50,0.366,0.219,0.373,0.345,0.322,0.183,0.118,west-northwest,11.0,No
2017/06/03,13:00,0.365,0.221,0.379,0.350,0.323,0.184,0.119,west-northwest,11.3,No
2017/06/03,13:10,0.369,0.221,0.377,0.349,0.320,0.184,0.119,west-northwest,10.0,No
2017/06/03,13:20,0.367,0.219,0.375,0.346,0.324,0.184,0.118,west-northwest,13.9,No
2017/06/03,13:30,0.367,0.222,0.380,0.350,0.324,0.183,0.118,west-northwest,10.1,No
2017/06/03,13:40,0.367,0.223,0.377,0.352,0.321,0.185,0.120,northwest,10.6,No
2017/06/03,13:50,0.368,0.221,0.375,0.349,0.322,0.184,0.118,west-northwest,8.0,No
2017/06/03,14:00,0.370,0.222,0.379,0.347,0.323,0.184,0.118,northwest,8.3,No
2017/06/03,14:10,0.369,0.224,0.378,0.351,0.322,0.184,0.118,northwest,8.9,No
2017/06/03,14:20,0.367,0.223,0.376,0.348,0.322,0.184,0.118,northwest,7.5,No
2017/06/03,14:30,0.372,0.222,0.378,0.348,0.325,0.183,0.119,northwest,7.1,No
2017/06/03,14:40,0.367,0.222,0.376,0.350,0.321,0.185,0.119,northwest,6.8,No
2017/06/03,14:50,0.369,0.222,0.380,0.347,0.326,0.184,0.119,west-northwest,10.1,No
2017/06/03,15:00,0.370,0.221,0.378,0.352,0.324,0.184,0.120,northwest,10.7,No
2017/06/03,15:10,0.365,0.223,0.375,0.349,0.321,0.184,0.119,north-northwest,10.4,No
2017/06/03,15:20,0.370,0.224,0.378,0.345,0.319,0.184,0.118,northwest,7.7,No
2017/06/03,15:30,0.367,0.222,0.378,0.352,0.323,0.184,0.118,west-northwest,8.2,No
2017/06/03,15:40,0.366,0.222,0.376,0.350,0.323,0.183,0.119,northwest,6.7,No
2017/06/03,15:50,0.371,0.222,0.375,0.347,0.322,0.184,0.119,west-northwest,7.4,No
2017/06/03,16:00,0.368,0.221,0.377,0.352,0.321,0.183,0.120,west-northwest,6.2,No
2017/06/03,16:10,0.368,0.221,0.379,0.349,0.320,0.185,0.120,northwest,7.6,No
2017/06/03,16:20,0.370,0.223,0.375,0.348,0.319,0.184,0.119,west-northwest,7.3,No
2017/06/03,16:30,0.367,0.222,0.380,0.350,0.322,0.185,0.120,west-northwest,6.8,No
2017/06/03,16:40,0.371,0.223,0.378,0.348,0.324,0.185,0.120,northwest,6.2,No
2017/06/03,16:50,0.372,0.223,0.380,0.353,0.324,0.184,0.119,north-northwest,6.3,No
2017/06/03,17:00,0.368,0.223,0.380,0.349,0.320,0.185,0.120,northwest,6.1,No
2017/06/03,17:10,0.372,0.223,0.380,0.350,0.322,0.185,0.119,north-northwest,5.3,No
2017/06/03,17:20,0.367,0.225,0.380,0.351,0.325,0.185,0.121,north,7.5,No
2017/06/03,17:30,0.371,0.222,0.379,0.350,0.323,0.185,0.119,north,4.4,No
2017/06/03,17:40,0.371,0.223,0.379,0.351,0.319,0.184,0.119,north,6.8,No
2017/06/03,17:50,0.369,0.223,0.378,0.350,0.323,0.185,0.118,north,4.4,No
2017/06/03,18:00,0.372,0.224,0.381,0.352,0.323,0.184,0.120,north,5.5,No
2017/06/03,18:10,0.368,0.222,0.378,0.348,0.322,0.185,0.119,north-northwest,4.7,No
2017/06/03,18:20,0.372,0.223,0.379,0.352,0.326,0.185,0.119,northwest,8.9,No
2017/06/03,18:30,0.369,0.222,0.378,0.350,0.323,0.185,0.119,north-northwest,7.4,No
2017/06/03,18:40,0.370,0.224,0.380,0.352,0.326,0.185,0.120,northwest,6.5,No
2017/06/03,18:50,0.369,0.223,0.379,0.350,0.322,0.186,0.119,northwest,5.0,No
2017/06/03,19:00,0.372,0.225,0.379,0.353,0.325,0.184,0.120,northwest,5.9,No
2017/06/03,19:10,0.369,0.222,0.380,0.351,0.323,0.185,0.119,west-northwest,10.4,No
2017/06/03,19:20,0.370,0.223,0.381,0.351,0.325,0.184,0.120,west-northwest,8.6,No
2017/06/03,19:30,0.369,0.223,0.380,0.351,0.323,0.185,0.119,northwest,8.4,No
2017/06/03,19:40,0.370,0.222,0.383,0.352,0.325,0.185,0.120,northwest,7.4,No
2017/06/03,19:50,0.369,0.225,0.380,0.350,0.324,0.185,0.120,west-northwest,7.4,No
2017/06/03,20:00,0.372,0.223,0.381,0.352,0.325,0.186,0.119,west-northwest,6.3,No
2017/06/03,20:10,0.371,0.223,0.377,0.350,0.323,0.184,0.119,west-northwest,6.1,No
2017/06/03,20:20,0.373,0.223,0.381,0.351,0.323,0.185,0.119,northwest,6.3,No
2017/06/03,20:30,0.368,0.222,0.379,0.351,0.324,0.185,0.120,west-northwest,7.5,No
2017/06/03,20:40,0.371,0.224,0.381,0.351,0.322,0.184,0.119,west-northwest,7.8,No
2017/06/03,20:50,0.371,0.223,0.381,0.352,0.325,0.185,0.118,west-northwest,7.2,No
2017/06/03,21:00,0.369,0.222,0.381,0.351,0.322,0.185,0.120,northwest,7.3,No
2017/06/03,21:10,0.371,0.224,0.380,0.352,0.323,0.185,0.119,west-northwest,9.9,No
2017/06/03,21:20,0.372,0.223,0.380,0.349,0.322,0.184,0.120,west-northwest,9.2,No
2017/06/03,21:30,0.372,0.223,0.383,0.351,0.324,0.185,0.119,northwest,6.8,No
2017/06/03,21:40,0.368,0.224,0.380,0.350,0.323,0.184,0.119,northwest,2.3,No
2017/06/03,21:50,0.373,0.224,0.381,0.352,0.323,0.185,0.120,northwest,4.8,No
2017/06/03,22:00,0.369,0.224,0.380,0.351,0.324,0.185,0.119,west-northwest,8.8,No
2017/06/03,22:10,0.371,0.223,0.381,0.351,0.322,0.185,0.120,west-northwest,7.7,No
2017/06/03,22:20,0.370,0.222,0.381,0.351,0.324,0.185,0.119,west-northwest,5.7,No
2017/06/03,22:30,0.372,0.223,0.380,0.350,0.324,0.185,0.119,west-northwest,5.3,No
2017/06/03,22:40,0.371,0.224,0.382,0.352,0.323,0.184,0.120,west-southwest,3.3,No
2017/06/03,22:50,0.371,0.222,0.378,0.349,0.325,0.185,0.119,northwest,2.1,No
2017/06/03,23:00,0.371,0.224,0.381,0.351,0.322,0.185,0.120,southwest,1.4,No
2017/06/03,23:10,0.370,0.222,0.380,0.350,0.324,0.186,0.119,west-northwest,1.2,No
2017/06/03,23:20,0.372,0.223,0.381,0.354,0.323,0.186,0.119,north-northwest,1.9,No
2017/06/03,23:30,0.369,0.224,0.380,0.349,0.324,0.185,0.119,west-northwest,1.8,No
2017/06/03,23:40,0.373,0.223,0.379,0.350,0.323,0.185,0.119,northwest,2.7,No
2017/06/03,23:50,0.369,0.222,0.383,0.352,0.323,0.185,0.120,west,4.3,No
